Volver al catálogo

STARLINK-33733

ActivoComunicacionesVLEO
NORAD 63435·PAYLOAD·🇺🇸 United States

Lanzado Apr 4, 2025 desde Vandenberg Space Force Base

Loading…

Próximos Pases (próximas 24 horas)

TLE

ActualizadoSource: CelesTrak SupGP

Época: Sep 15, 2026, 02:25 UTC

1 63435C 25069C   26258.10118056  .00069703  00000+0  20594-2 0  2582
2 63435  53.1589 334.8624 0001191  84.0143 305.7814 15.34356302    17

Sigue STARLINK-33733 en tiempo real con AllMySat

Download on the App Store